When you browse on this site, cookies collect data to enhance your experience and personalize the content and advertising you see.
Visit our Privacy Policy to learn more. By continuing to use the site, you agree to this use of cookies and data.
  • In Österreich
  • Länderverzeichnis
  • Für 7 Tage
  • Wassertemperatur
  • Satellitenkarten
  • Wetterkarte
  • News
  • Widgets
  • user-avatar
    Anmelden

    Stündliche Wetter Kopina

    Heute, 16 Februar, Samstag

    Zeit Temperatur Niederschläge Wind Luftdruck Luftfeuchtigkeit
    00:00 +1°C° 0 mm 2 m/S 765 mmHg 92%
    01:00 +1°C° 0 mm 2 m/S 765 mmHg 91%
    02:00 +1°C° 0 mm 2 m/S 765 mmHg 89%
    03:00 0°C° 0 mm 3 m/S 764 mmHg 88%
    04:00 0°C° 0 mm 3 m/S 764 mmHg 87%
    05:00 0°C° 0 mm 3 m/S 764 mmHg 84%
    06:00 0°C° 0 mm 3 m/S 763 mmHg 82%
    07:00 0°C° 0 mm 3 m/S 763 mmHg 79%
    08:00 0°C° 0 mm 4 m/S 763 mmHg 73%
    09:00 +3°C° 0 mm 4 m/S 763 mmHg 68%
    10:00 +3°C° 0 mm 5 m/S 762 mmHg 62%
    11:00 +5°C° 0 mm 5 m/S 762 mmHg 60%
    12:00 +6°C° 0 mm 5 m/S 762 mmHg 58%
    13:00 +7°C° 0 mm 6 m/S 762 mmHg 56%
    14:00 +7°C° 0 mm 5 m/S 761 mmHg 57%
    15:00 +7°C° 0 mm 5 m/S 761 mmHg 59%
    16:00 +7°C° 0 mm 5 m/S 760 mmHg 61%
    17:00 +6°C° 0 mm 5 m/S 760 mmHg 64%
    18:00 +5°C° 0 mm 5 m/S 760 mmHg 68%
    19:00 +3°C° 0 mm 5 m/S 759 mmHg 71%
    20:00 +3°C° 0 mm 5 m/S 759 mmHg 73%
    21:00 +4°C° 0 mm 4 m/S 759 mmHg 75%
    22:00 +3°C° 0 mm 4 m/S 759 mmHg 77%
    23:00 +3°C° 0 mm 4 m/S 759 mmHg 80%

    Morgen, 17 Februar, Sonntag

    Zeit Temperatur Niederschläge Wind Luftdruck Luftfeuchtigkeit
    00:00 +1°C° 0 mm 4 m/S 759 mmHg 82%
    01:00 +1°C° 0 mm 4 m/S 759 mmHg 84%
    02:00 +1°C° 0 mm 4 m/S 759 mmHg 86%
    03:00 +1°C° 0 mm 4 m/S 759 mmHg 87%
    04:00 +1°C° 0 mm 4 m/S 759 mmHg 89%
    05:00 +1°C° 0 mm 4 m/S 759 mmHg 91%
    06:00 +1°C° 0 mm 4 m/S 759 mmHg 92%
    07:00 +1°C° 0 mm 4 m/S 759 mmHg 94%
    08:00 +1°C° 0 mm 4 m/S 759 mmHg 94%
    09:00 +3°C° 0 mm 4 m/S 759 mmHg 95%
    10:00 +3°C° 0 mm 4 m/S 760 mmHg 95%
    11:00 +4°C° 0 mm 4 m/S 760 mmHg 93%
    12:00 +4°C° 0 mm 4 m/S 760 mmHg 90%
    13:00 +4°C° 0 mm 4 m/S 760 mmHg 88%
    14:00 +4°C° 0 mm 3 m/S 760 mmHg 88%
    15:00 +4°C° 0 mm 3 m/S 760 mmHg 88%
    16:00 +4°C° 0 mm 3 m/S 761 mmHg 87%
    17:00 +5°C° 0 mm 2 m/S 761 mmHg 89%
    18:00 +4°C° 0 mm 2 m/S 761 mmHg 90%
    19:00 +4°C° 0 mm 2 m/S 761 mmHg 91%
    20:00 +3°C° 0 mm 2 m/S 761 mmHg 92%
    21:00 +3°C° 0 mm 2 m/S 761 mmHg 93%
    22:00 +3°C° 0 mm 1 m/S 761 mmHg 94%
    23:00 +3°C° 0 mm 1 m/S 762 mmHg 94%

    übermorgen, 18 Februar, Montag

    Zeit Temperatur Niederschläge Wind Luftdruck Luftfeuchtigkeit
    00:00 +3°C° 0 mm 1 m/S 762 mmHg 94%
    01:00 +1°C° 0 mm 2 m/S 762 mmHg 94%
    02:00 +1°C° 0 mm 2 m/S 762 mmHg 94%
    03:00 +1°C° 0 mm 2 m/S 761 mmHg 94%
    04:00 +1°C° 0 mm 2 m/S 761 mmHg 94%
    05:00 +1°C° 0 mm 2 m/S 761 mmHg 94%
    06:00 +1°C° 0 mm 2 m/S 761 mmHg 93%
    07:00 +1°C° 0 mm 2 m/S 761 mmHg 93%
    08:00 +1°C° 0 mm 3 m/S 761 mmHg 87%
    09:00 +3°C° 0 mm 4 m/S 761 mmHg 82%
    10:00 +4°C° 0 mm 4 m/S 761 mmHg 76%
    11:00 +5°C° 0 mm 4 m/S 761 mmHg 73%
    12:00 +6°C° 0 mm 5 m/S 761 mmHg 70%
    13:00 +7°C° 0 mm 5 m/S 760 mmHg 66%
    14:00 +6°C° 0 mm 5 m/S 760 mmHg 69%
    15:00 +6°C° 0 mm 5 m/S 759 mmHg 71%
    16:00 +6°C° 0 mm 4 m/S 759 mmHg 74%
    17:00 +5°C° 0 mm 5 m/S 759 mmHg 77%
    18:00 +3°C° 0 mm 5 m/S 759 mmHg 81%
    19:00 +2°C° 0 mm 5 m/S 758 mmHg 85%
    20:00 +2°C° 0 mm 5 m/S 758 mmHg 85%
    21:00 +2°C° 0 mm 5 m/S 758 mmHg 86%
    22:00 +2°C° 0 mm 5 m/S 758 mmHg 87%
    23:00 +2°C° 0 mm 5 m/S 757 mmHg 87%

    19 Februar, Dienstag

    Zeit Temperatur Niederschläge Wind Luftdruck Luftfeuchtigkeit
    00:00 +1°C° 0 mm 4 m/S 757 mmHg 86%
    01:00 +1°C° 0 mm 4 m/S 757 mmHg 86%
    02:00 +1°C° 0 mm 4 m/S 756 mmHg 86%
    03:00 0°C° 0 mm 5 m/S 755 mmHg 85%
    04:00 0°C° 0 mm 5 m/S 755 mmHg 84%
    05:00 0°C° 0 mm 5 m/S 754 mmHg 84%
    06:00 0°C° 0 mm 5 m/S 754 mmHg 84%
    07:00 0°C° 0 mm 5 m/S 754 mmHg 84%
    08:00 +1°C° 0 mm 6 m/S 753 mmHg 80%
    09:00 +2°C° 0 mm 6 m/S 753 mmHg 76%
    10:00 +3°C° 0 mm 6 m/S 753 mmHg 73%
    11:00 +4°C° 0 mm 7 m/S 753 mmHg 70%
    12:00 +5°C° 0 mm 7 m/S 752 mmHg 68%
    13:00 +6°C° 0 mm 7 m/S 752 mmHg 66%
    14:00 +7°C° 0.2 mm 6 m/S 752 mmHg 71%
    15:00 +5°C° 0.2 mm 6 m/S 752 mmHg 75%
    16:00 +5°C° 0.2 mm 6 m/S 752 mmHg 80%
    17:00 +5°C° 0.1 mm 5 m/S 752 mmHg 83%
    18:00 +3°C° 0.1 mm 5 m/S 752 mmHg 85%
    19:00 +4°C° 0.1 mm 4 m/S 753 mmHg 88%
    20:00 +3°C° 0 mm 5 m/S 753 mmHg 88%
    21:00 +3°C° 0 mm 5 m/S 753 mmHg 88%
    22:00 +3°C° 0 mm 5 m/S 753 mmHg 88%
    23:00 +2°C° 0 mm 5 m/S 753 mmHg 88%

    20 Februar, Mittwoch

    Zeit Temperatur Niederschläge Wind Luftdruck Luftfeuchtigkeit
    00:00 +2°C° 0 mm 6 m/S 753 mmHg 87%
    01:00 +2°C° 0 mm 6 m/S 752 mmHg 87%
    02:00 +2°C° 0 mm 6 m/S 752 mmHg 85%
    03:00 +2°C° 0 mm 6 m/S 752 mmHg 84%
    04:00 +2°C° 0 mm 6 m/S 752 mmHg 83%
    05:00 +2°C° 0 mm 6 m/S 752 mmHg 82%
    06:00 +2°C° 0 mm 7 m/S 752 mmHg 81%
    07:00 +2°C° 0 mm 7 m/S 752 mmHg 80%
    08:00 +2°C° 0 mm 7 m/S 752 mmHg 79%
    09:00 +1°C° 0 mm 8 m/S 753 mmHg 78%
    10:00 +1°C° 0 mm 8 m/S 753 mmHg 77%
    11:00 +1°C° 0.1 mm 8 m/S 753 mmHg 76%
    12:00 +2°C° 0.1 mm 8 m/S 753 mmHg 76%
    13:00 +2°C° 0.1 mm 8 m/S 754 mmHg 75%
    14:00 +3°C° 0.1 mm 7 m/S 754 mmHg 74%
    15:00 +3°C° 0.1 mm 7 m/S 755 mmHg 73%
    16:00 +3°C° 0.1 mm 6 m/S 755 mmHg 72%
    17:00 +2°C° 0 mm 5 m/S 755 mmHg 77%
    18:00 +1°C° 0 mm 4 m/S 756 mmHg 82%
    19:00 +1°C° 0 mm 3 m/S 756 mmHg 87%
    20:00 +1°C° 0 mm 3 m/S 756 mmHg 89%
    21:00 +1°C° 0 mm 3 m/S 757 mmHg 92%
    22:00 0°C° 0 mm 3 m/S 757 mmHg 94%
    23:00 +1°C° 0 mm 2 m/S 757 mmHg 95%

    21 Februar, Donnerstag

    Zeit Temperatur Niederschläge Wind Luftdruck Luftfeuchtigkeit
    00:00 +1°C° 0 mm 2 m/S 757 mmHg 95%
    01:00 +1°C° 0 mm 2 m/S 757 mmHg 96%
    02:00 +2°C° 0.1 mm 2 m/S 757 mmHg 96%
    03:00 +3°C° 0.1 mm 1 m/S 757 mmHg 97%
    04:00 +3°C° 0.1 mm 1 m/S 757 mmHg 97%
    05:00 +2°C° 0.1 mm 2 m/S 757 mmHg 95%
    06:00 +1°C° 0.1 mm 3 m/S 758 mmHg 93%
    07:00 -1°C° 0.1 mm 4 m/S 758 mmHg 91%
    08:00 -1°C° 0.3 mm 4 m/S 758 mmHg 88%
    09:00 -1°C° 0.3 mm 4 m/S 758 mmHg 85%
    10:00 -1°C° 0.3 mm 5 m/S 758 mmHg 82%
    11:00 -2°C° 0.3 mm 5 m/S 759 mmHg 82%
    12:00 -2°C° 0.3 mm 5 m/S 759 mmHg 82%
    13:00 -2°C° 0.3 mm 5 m/S 759 mmHg 81%
    14:00 -2°C° 0.2 mm 4 m/S 759 mmHg 80%
    15:00 -2°C° 0.2 mm 4 m/S 759 mmHg 79%
    16:00 -2°C° 0.2 mm 4 m/S 759 mmHg 78%
    17:00 -2°C° 0 mm 4 m/S 760 mmHg 74%
    18:00 -2°C° 0 mm 4 m/S 761 mmHg 69%
    19:00 -2°C° 0 mm 4 m/S 761 mmHg 65%
    20:00 -3°C° 0 mm 4 m/S 762 mmHg 64%
    21:00 -4°C° 0 mm 4 m/S 763 mmHg 62%
    22:00 -5°C° 0 mm 4 m/S 764 mmHg 61%
    23:00 -5°C° 0 mm 4 m/S 764 mmHg 62%
    Mehr zeigen